Home > Weather > Binningen > Past weeks

Flag for Switzerland Past Weather in Binningen, Basel-Land, Switzerland — Yesterday and Last 2 Weeks

Now
65 °F

Passing clouds.


Feels Like: 65 °F
Forecast: 62 / 79 °F
Wind: 2 mph from West

Location: Bale-Mulhouse

Current Time: Jul 29, 2016 at 12:20:45 AM

Latest Report: Jul 28, 2016 at 11:00 PM


Visibility: 25 mi

Pressure: 30.04 "Hg

Humidity: 83%

Dew Point: 60 °F

Location of BinningenLocation

Past Weather in Binningen — Graph

°F

Binningen Temperature Yesterday

Maximum temperature yesterday: 79 °F (at 3:00 PM)
Minimum temperature yesterday: 58 °F (at 5:00 AM)
Average temperature yesterday: 68 °F

High & Low Weather Summary for the Past Weeks

 TemperatureHumidityPressure
High95 °F (Jul 20, 4:00 PM)98% (Jul 16, 7:00 AM)30.37 "Hg (Jul 16, 7:00 AM)
Low45 °F (Jul 16, 5:00 AM)30% (Jul 19, 6:00 PM)29.88 "Hg (Jul 20, 6:00 PM)
Average69 °F72%30.10 "Hg
* Reported Jul 13 11:00 PM — Jul 28 11:00 PM, Binningen, Weather by CustomWeather, © 2016

Note: Actual official high and low records may vary slightly from our data, if they occured in-between our weather recording intervals... More about our weather records

Advertising

Binningen Weather History for the Previous 24 Hours

Scroll right to see more
 ConditionsComfort  
Time TempWeatherWind HumidityBarometerVisibility
11:00 PM
Thu, Jul 28
65 °FPassing clouds.2 mph83%30.04 "Hg25 mi
8:00 PM74 °FOvercast.3 mph61%30.00 "Hg25 mi
6:00 PM78 °FOvercast.9 mph52%30.00 "Hg22 mi
5:00 PM77 °FOvercast.9 mph53%30.01 "Hg12 mi
3:00 PM79 °FPartly sunny.12 mph49%30.03 "Hg12 mi
2:00 PM78 °FPartly sunny.13 mph53%30.04 "Hg12 mi
1:00 PM75 °FOvercast.12 mph54%30.05 "Hg12 mi
11:00 AM75 °FPartly sunny.6 mph58%30.05 "Hg12 mi
10:00 AM73 °FOvercast.3 mph59%30.06 "Hg31 mi
9:00 AM68 °FPartly sunny.5 mph71%30.06 "Hg16 mi
8:00 AM65 °FMild.5 mph79%30.07 "Hg28 mi
7:00 AM60 °FOvercast.2 mph92%30.08 "Hg12 mi
6:00 AM59 °FPassing clouds.3 mph91%30.07 "Hg19 mi
5:00 AM58 °FPassing clouds.No wind90%30.08 "Hg19 mi
4:00 AM60 °FCool.2 mph87%30.09 "Hg22 mi
3:00 AM59 °FCool.3 mph88%30.09 "Hg28 mi
2:00 AM60 °FCool.1 mph87%30.09 "Hg22 mi
1:00 AM64 °FMild.1 mph75%30.08 "Hg34 mi
12:00 AM67 °FPassing clouds.2 mph71%30.08 "Hg19 mi
Weather by CustomWeather, © 2016

See weather overviewHow to use our weather pages